Regional Weather Roundup
Issued by NWS

Current Version | Previous Version | Graphics & Text | Print | Product List | Glossary On
Versions: 1 2 3 4 5 6 7 8 9 10 11 12 13 14 15 16 17 18 19 20 21 22 23 24 25 26 27 28 29 30 31 32 33 34 35 36 37 38 39 40 41 42 43 44 45 46 47 48 49 50
000
ASHW40 PHFO 062030
RWRHI

WEATHER ROUNDUP FOR HAWAII
NATIONAL WEATHER SERVICE HONOLULU HI
1000 AM HST WED MAY 06 2015

THIS IS AN AUTOMATED REPORT THAT HAS NOT BEEN QUALITY CONTROLLED.

NOTE..."FAIR" INDICATES FEW OR NO CLOUDS BELOW 12,000 FEET WITH NO
SIGNIFICANT WEATHER AND/OR OBSTRUCTIONS TO VISIBILITY.

* - THESE SITES REPORT LIMITED FIELDS

HIZ001>004-062100-
KAUAI-NIIHAU-

CITY           SKY/WX    TMP DP  RH WIND       PRES   REMARKS
LIHUE APT      CLOUDY    76  66  71 E20G25    30.07R
PORT ALLEN*      N/A     75 N/A N/A E22G29      N/A
POIPU*           N/A     77 N/A N/A E8G17       N/A
PRINCEVILLE*     N/A     73 N/A N/A MISG        N/A
KOKOLE POINT*  NOT AVBL
MOLOAA DAIRY*  NOT AVBL
WAIMEA HTS*    NOT AVBL
PUU OPAE*      NOT AVBL
PUU LUA*       NOT AVBL
MAKAHA RIDGE*    N/A     72  63  73 W1G7        N/A
$$

HIZ005>011-062100-
OAHU-

CITY           SKY/WX    TMP DP  RH WIND       PRES   REMARKS
HONOLULU       PTSUNNY   76  62  62 E18G24    30.04S
KALAELOA       PTSUNNY   79  61  53 E8G16     30.05F
KANEOHE MCB    LGT RAIN  79  64  60 E13G25    30.03S
WHEELER FIELD  FAIR      74  63  68 E17       30.04F
BELLOWS*         N/A    N/A N/A N/A E25G31      N/A
KAHUKU*          N/A    N/A N/A N/A E14G24      N/A
WHEELER*       NOT AVBL
WAIANAE HARBOR NOT AVBL
DILLINGHAM*      N/A     64  55  72 MISG        N/A
KAHUKU TRN*      N/A     70  57  64 E14G25      N/A
KAWAILOA*        N/A     70  64  83 E10G22      N/A
KII*             N/A     77  66  69 E21G26      N/A
MAKUA RANGE*     N/A     81  63  54 E8G18       N/A
OAHU FOREST NW NOT AVBL
SCHOFIELD BRK*   N/A     63  52  67 MISG        N/A
SCHOFIELD S*   NOT AVBL
WAIANAE VLY*   NOT AVBL
KUAOKALA*      NOT AVBL
HONOULIUULI*   NOT AVBL
MOKUOLOE IS*     N/A    N/A N/A N/A MISG        N/A
PALEHUA*       NOT AVBL
WAIAWA PHB*    NOT AVBL
$$

HIZ012>013-062100-
MOLOKAI-

CITY           SKY/WX    TMP DP  RH WIND       PRES   REMARKS
MOLOKAI AIRPT  LGT RAIN  76  65  68 NE14G25   30.06R
KALAUPAPA      NOT AVBL
MAKAPULAPAI*   NOT AVBL
MOLOKAI 1*     NOT AVBL
PUU ALII*        N/A     57  57  99 CALM        N/A
$$

HIZ016-062100-
KAHOOLAWE-

CITY           SKY/WX    TMP DP  RH WIND       PRES   REMARKS
KAHOOLAWE*     NOT AVBL
HAKIOAWA*        N/A     74  63  69 MISG      30.45F
HONOKANAIA*      N/A     78  64  60 NE21G32   30.05S
KANELOA*         N/A     73  64  73 MISG      29.26R
KEALIALALO*      N/A     75  63  64 E18G37    30.04S
LUA MAKIKA*    NOT AVBL
$$

HIZ014>015-062100-
LANAI-

CITY           SKY/WX    TMP DP  RH WIND       PRES   REMARKS
LANAI CITY     CLOUDY    72  61  68 SE9       30.08S
LANAI 1*       NOT AVBL
$$

HIZ017>028-062100-
MAUI-

CITY           SKY/WX    TMP DP  RH WIND       PRES   REMARKS
KAHULUI        MOSUNNY   79  63  57 NE22G30   30.05F
KAPALUA-W MAUI MOSUNNY   73  63  68 NE17G29   30.05F
HANA AIRPORT   CLOUDY    73  64  73 SE12      30.11S HAZE
HANA*            N/A     75 N/A N/A E13G18      N/A
HALEAKALA SUMM   N/A     55  14  19 NE15        N/A
MAALAEA BAY*   NOT AVBL
HALEAKALA*     NOT AVBL
KAUPO GAP*     NOT AVBL
KULA 1*          N/A     54  51  90 NW3         N/A
$$

HIZ023>026-062100-
BIG ISLAND OF HAWAII COAST AND LOWER SLOPES-

CITY           SKY/WX    TMP DP  RH WIND       PRES   REMARKS
KAILUA KONA    MOSUNNY   81  66  60 W8        30.00S
HILO           PTSUNNY   76  63  64 NW3       30.07S
HONOKAA*       NOT AVBL
KAWAIHAE MWT*    N/A     84 N/A N/A E12G24      N/A
KAWAIHAE*        N/A     82 N/A N/A NE18G26     N/A
SOUTH POINT*     N/A     75 N/A N/A E23G37      N/A
UPOLU AIRPORT*   N/A    N/A N/A N/A E18G26      N/A
KAMUELA*       CLEAR     73  54  49 NE18      30.11F
HAKALAU*         N/A     55  53  91 SE5G10      N/A
KALOKO-HONOKO*   N/A     82  66  57 SW8       29.99
PALI 2*          N/A     66  59  77 NE13G26     N/A
KEALAKOMO*       N/A     77  63  61 NE15G24     N/A
KAUPULEHU*     NOT AVBL
KAPAPALA*        N/A     75  61  62 E10G20      N/A
LOWER KAHUKU*    N/A     64  59  82 E3G15       N/A
PUHE CS*         N/A     84  55  37 E9G23       N/A
PUHO CS*         N/A     80  64  58 W3          N/A
PTA KEAMUKU*     N/A     70  54  56 CALM        N/A
WAIKOLOA*      NOT AVBL
$$

HIZ027>028-062100-
BIG ISLAND OF HAWAII INTERIOR AND SUMMMITS-

CITY           SKY/WX    TMP DP  RH WIND       PRES   REMARKS
BRADSHAW FIELD MOSUNNY   63  47  56 SE3G14    30.29S
MK VISITOR CEN NOT AVBL
MAUNA KEA*       N/A     45 -15   8 SE20        N/A
MAUNA LOA*       N/A     59 -42   1 MISG        N/A
MAUNA LOA 1*   NOT AVBL
PTA KIPUKA*      N/A     66  50  55 NW6G12      N/A
PTA RANGE 17*    N/A     64  54  68 NW10G22     N/A
PTA WEST*      NOT AVBL
NENE CABIN*      N/A     52  46  82 E10G18      N/A
AHUMOA*        NOT AVBL
PTA PORTABLE*  NOT AVBL
PUU MALI*        N/A     59  48  67 NW8G15      N/A
$$

HIC003-062100-
NORTHWEST ISLANDS-

CITY           SKY/WX    TMP DP  RH WIND       PRES   REMARKS
MIDWAY ISLAND  MOSUNNY  N/A N/A N/A NE12      30.25R
MIDWAY NOS*    NOT AVBL
FRENCH FRIGATE NOT AVBL
$$

PHZ110>124-180-062100-
BUOY REPORTS

STATION/POSITION TIME  TEMP    WIND        PRES    WAVE   SWELL
                       AIR SEA DIR/SP/G            HT/PER HT/DIR
                 (UTC) (F)     (DEG/KT/KT) (MB)    (FT/S) (FT/D)
BUOY 51001       NOT AVBL
BUOY 51101       2000   75 76   90/ 12/ 14 1018.8R   6/ 8   5/100
BUOY 51100       NOT AVBL
BUOY 51002       2000   78 79   90/ 19/ 23 1014.6R  10/ 8   5/180
BUOY 51003       2000   77 79   90/ 12/ 14 1016.3R   7/ 8   7
BUOY 51004       1934   75 77   60/ 17/ 21 1015.8R   9/ 8   7/ 70
BARBERS PT BUOY  NOT AVBL
WAIMEA BAY BUOY  2000      77                N/A     5/13   2
KAILUA BAY BUOY  2000      78                N/A     8/ 8   2/ 10
LANAI BUOY       NOT AVBL
BARBERS PT 2     2000      77                N/A     6/17   3/190
PAUWELA MAUI     2000      76                N/A     8/ 8   2/360
HILO             2000      77                N/A     7/ 9   3/ 10
KANEOHE BAY BUOY 2000      76                N/A     7/ 8   2/ 10
HANALEI KAUAI    2000      78                N/A     8/ 8   2/ 20
KAHULUI HARBOR   2000           50/ 20/ 27 1017.2F
HONOLULU HARBOR  2000           90/  5/ 12 1017.3
KILO NALU        NOT AVBL
HILO HARBOR      2000          300/  4/  5 1017.9F
MOKUOLOE         2000      76              1017.8R
NAWILIWILI       2000   76 77   90/ 20/ 21 1017.7R
WHOTS BUOY       NOT AVBL
BUOY 51028       NOT AVBL
$$

......................KEY........................................
  SKY/WX - SKY CONDITIONS/PRESENT WEATHER
  TMP    - TEMPERATURE IN FAHRENHEIT
  DWPT   - DEWPOINT IN FAHRENHEIT
  RH     - RELATIVE HUMIDITY IN PERCENT
  WIND   - DIRECTION AND SPEED /MPH FOR ISLANDS...KTS FOR BUOYS/
  PRES   - MEAN SEA LEVEL PRESSURE IN INCHES OF HG
  VSB    - VISIBILITY IN MILES
  HX     - HEAT INDEX
  WCI    - WIND CHILL INDEX
  VRB    - VARIABLE WIND DIRECTION
  N/A    - NOT AVAILABLE


USA.gov is the U.S. government's official web portal to all federal, state and local government web resources and services.